THORAD AGENA D DEB

Satellite information

Favourite Embed

Satellite Type and Status

DEBRISIN ORBIT

Key statistics

Satellite THORAD AGENA D DEB at a glance.

Uptime

20528

Days in orbit

Revolutions

≈ 14.2

Per day

Orbit

LEO

Low Earth Orbit

Inclination

70.0

Latest

Satellite identification and parameters

Extended collection of information and parameters for THORAD AGENA D DEB.

Object identification

Identified? True

Debris? True

Object name: THORAD AGENA D DEB

International designator: 1969-082DP

Object number (NORAD): 4135

Object ID (CCSDS): 4135

Country: UNITED STATES OF AMERICA (US)

Current information (Y/N): Y

RCS size: MEDIUM

Orbital parameters

Period: 101.118 minutes

Inclination: 69.9802 deg

SMA: 7189.731 km

Apoapsis: 844.191 km

Periapsis: 779.002 km

RAAN: 227.6123 deg

Eccentricy: 0.00453347

Argument of periapsis: 152.1983 deg

Mean anomaly: 208.1575 deg

Mean motion: 14.2407805 rev/day

Mean motion (dot): 0.00000492 rev/day2

B* drag term: 0.00023587452 1/REarth

Two-line elements (TLE)

Creation date: Dec. 12, 2025, 10:14 a.m.

Reference frame: TEME

Reference center: EARTH

Epoch: Dec. 12, 2025, 2:54 a.m. UTC

TLE line 0: 0 THORAD AGENA D DEB

TLE line 1: 1 04135U 69082DP 25346.12132705 .00000492 00000-0 23587-3 0 9992

TLE line 2: 2 04135 69.9802 227.6123 0045335 152.1983 208.1575 14.24078050904801

Live tracking on map

Real-time ground track for satellite THORAD AGENA D DEB.

In-orbit conjunctions

A list of the most updated potential collisions computed for object THORAD AGENA D DEB.

Target Orbit TCA Probability of collision Miss distance Type
ELECTRON KICK STAGE R/B SSO 2025-09-17 09:21:18 0.000510239 533.0 (m) ROCKET BODY
FENGYUN 1C DEB SSO 2024-11-12 07:22:35 0.0008148679 330.0 (m) DEBRIS
FENGYUN 1C DEB SSO 2024-09-25 03:10:05 0.000532529 73.0 (m) DEBRIS
CZ-4 DEB SSO 2024-08-02 03:52:22 0.0001362263 100.0 (m) DEBRIS

Associated space launch

Poppy was the follow-on ELINT system, which succeeded the Grab ELINT satellite system.

THORAD AGENA D DEB was lifted into orbit during the mission ‘Thorad SLV-2G Agena D | Poppy 8A,B,C,D’, on board a Thorad SLV-2G Agena D space rocket.

The launch took place on Sept. 30, 1969, 1:40 p.m. from Space Launch Complex 1W.

For more information about the launch, click the button.

Launch to space Thorad SLV-2G Agena D | Poppy 8A,B,C,D
Thorad SLV-2G Agena D | Poppy 8A,B,C,D

Agency: N/A

Status: Launch Successful

Launch date: Sept. 30, 1969, 1:40 p.m. UTC

Rocket: Thorad SLV-2G Agena D

Launch pad: Space Launch Complex 1W

Location: Vandenberg SFB, CA, USA

...

Latest news about this satellite

There are no fresh news available about this satellite. Check back as we update our databases every day.


Newsletter sign-up

Weekly statistics, charts and insights to help you stay on top of the space industry.